Meteo Giornale » Osservazioni meteo Corea del Sud » Geumsan
ore: 04:10 - Osservazioni Meteo Geumsan
Lat. 36° 6' N Lon. 127° 28' E Alt. 172 metri s.l.m.
22 °C
Nebbia
Temp. 24 Ore
22 °C
26 °C
Nord
0 Km/h
Dew point 22 °C
Umidità 100 %
Visibilità 0 Km
Il sole sorge alle ore 06:01
Il sole tramonta alle ore 18:58
| Data e Ora | Cielo e Fenomeni | T °C | DP °C | Um. % | Pres. hPa | Vis. km | Vento km/h | |
|---|---|---|---|---|---|---|---|---|
| Oggi h: 04:10 | Nebbia | 22 | 22 | 100 | 1001 | 0 | N 0 | |
| Oggi h: 04:00 | Nebbia | 22 | 22 | 100 | 1001 | 0 | N 1.8 | |
| Oggi h: 03:50 | Nebbia | 22 | 22 | 100 | 1001 | 0 | N 1.8 | |
| Oggi h: 03:40 | Nebbia | 22 | 22 | 100 | 1001 | 0 | N 0 | |
| Oggi h: 03:30 | Nebbia | 22 | 22 | 100 | 1001 | 0 | N 1.8 | |
| Oggi h: 03:20 | Nebbia | 22 | 22 | 100 | 1001 | 0 | N 1.8 | |
| Oggi h: 03:10 | Nebbia | 22 | 22 | 100 | 1001 | 0 | N 3.7 | |
| Oggi h: 03:00 | Nebbia | 22 | 22 | 100 | 1001 | 0 | N 1.8 | |
| Oggi h: 02:50 | Nebbia | 22 | 22 | 100 | 1001 | 0 | N 3.7 | |
| Oggi h: 02:40 | Nebbia | 22 | 22 | 100 | 1001 | 0.4 | N 0 | |
| Oggi h: 02:30 | Nebbia | 22 | 22 | 100 | 1001 | 0.4 | N 1.8 | |
| Oggi h: 02:20 | Nebbia | 22 | 22 | 100 | 1001 | 0.4 | N 1.8 | |
| Oggi h: 02:10 | Nebbia | 22 | 22 | 100 | 1001 | 0.4 | N 1.8 | |
| Oggi h: 02:00 | Foschia | 22 | 22 | 100 | 1001 | 0.8 | N 1.8 | |
| Oggi h: 01:50 | Nebbia | 22 | 22 | 100 | 1001 | 0.4 | N 5.5 | |
| Oggi h: 01:40 | Nebbia | 22 | 22 | 100 | 1001 | 0.4 | N 5.5 | |
| Oggi h: 01:30 | Nebbia | 22 | 22 | 100 | 1001 | 0 | N 3.7 | |
| Oggi h: 01:20 | Nebbia | 22 | 22 | 100 | 1001 | 0 | N 1.8 | |
| Oggi h: 01:10 | Nebbia | 22 | 22 | 100 | 1001 | 0 | E/SE 9.3 | |
| Oggi h: 01:00 | Nebbia | 22 | 22 | 100 | 1001 | 0 | N 5.5 | |
| Oggi h: 00:50 | Nebbia | 22 | 22 | 100 | 1001 | 0 | SE 7.4 | |
| Oggi h: 00:40 | Nebbia | 23 | 23 | 100 | 1002 | 0 | N 0 | |
| Oggi h: 00:30 | Foschia | 23 | 23 | 100 | 1002 | 0.8 | N 1.8 | |
| Oggi h: 00:20 | Coperto | 23 | 23 | 100 | 1002 | 6 | N 1.8 | |
| Oggi h: 00:10 | Coperto | 23 | 23 | 100 | 1002 | 10 | N 3.7 | |
| Oggi h: 00:00 | Coperto | 23 | 23 | 100 | 1002 | 10 | N 1.8 | |
| Ieri h: 23:50 | Coperto | 23 | 23 | 100 | 1002 | 10 | N 1.8 | |
| Ieri h: 23:40 | Molto Nuvoloso | 23 | 23 | 100 | 1002 | 10 | N 1.8 | |
| Ieri h: 23:30 | Molto Nuvoloso | 23 | 23 | 100 | 1002 | 10 | N 1.8 | |
| Ieri h: 23:20 | Molto Nuvoloso | 23 | 23 | 100 | 1002 | 10 | N 0 | |
| Ieri h: 23:10 | Molto Nuvoloso | 23 | 23 | 100 | 1002 | 10 | N 0 | |
| Ieri h: 23:00 | Nuvoloso | 23 | 23 | 100 | 1002 | 10 | N 3.7 | |
| Ieri h: 22:50 | Nuvoloso | 23 | 23 | 100 | 1002 | 10 | N 3.7 | |
| Ieri h: 22:40 | Molto Nuvoloso | 23 | 23 | 100 | 1002 | 10 | N 3.7 | |
| Ieri h: 22:30 | Molto Nuvoloso | 23 | 23 | 100 | 1002 | 10 | N 5.5 | |
| Ieri h: 22:20 | Molto Nuvoloso | 23 | 23 | 100 | 1002 | 10 | N 5.5 | |
| Ieri h: 22:10 | Molto Nuvoloso | 23 | 23 | 100 | 1002 | 5 | E/SE 7.4 | |
| Ieri h: 22:00 | Molto Nuvoloso | 23 | 23 | 100 | 1002 | 5 | E/SE 9.3 | |
| Ieri h: 21:50 | Foschia | 23 | 23 | 100 | 1002 | 3 | E 7.4 | |
| Ieri h: 21:40 | Foschia | 23 | 23 | 100 | 1002 | 4 | E 7.4 | |
| Ieri h: 21:30 | Nebbia | 23 | 23 | 100 | 1002 | 0.8 | N 1.8 | |
| Ieri h: 21:20 | Foschia | 23 | 23 | 100 | 1001 | 0.8 | N 5.5 | |
| Ieri h: 21:10 | Poco Nuvoloso | 23 | 23 | 100 | 1001 | 10 | N 5.5 | |
| Ieri h: 21:00 | Sereno | 23 | 23 | 100 | 1001 | 10 | N 5.5 | |
| Ieri h: 20:50 | Sereno | 23 | 23 | 100 | 1001 | 10 | N 3.7 | |
| Ieri h: 20:40 | Sereno | 24 | 23 | 94 | 1001 | 10 | N 1.8 | |
| Ieri h: 20:30 | Sereno | 24 | 23 | 94 | 1001 | 10 | N 1.8 | |
| Ieri h: 20:20 | Sereno | 24 | 23 | 94 | 1001 | 10 | N 1.8 | |
| Ieri h: 20:10 | Sereno | 24 | 23 | 94 | 1000 | 10 | N 1.8 | |
| Ieri h: 20:00 | Sereno | 24 | 23 | 94 | 1000 | 10 | N 1.8 | |
| Ieri h: 19:50 | Poco Nuvoloso | 24 | 24 | 100 | 1000 | 10 | N 1.8 | |
| Ieri h: 19:40 | Poco Nuvoloso | 24 | 23 | 94 | 1000 | 10 | N 3.7 | |
| Ieri h: 19:30 | Nuvoloso | 24 | 24 | 100 | 1000 | 10 | N 1.8 | |
| Ieri h: 19:20 | Molto Nuvoloso | 24 | 24 | 100 | 1000 | 10 | N 3.7 | |
| Ieri h: 19:10 | Molto Nuvoloso | 24 | 24 | 100 | 1000 | 10 | N 3.7 | |
| Ieri h: 19:00 | Molto Nuvoloso | 24 | 24 | 100 | 1000 | 10 | N 1.8 | |
| Ieri h: 18:50 | Molto Nuvoloso | 25 | 23 | 88 | 1000 | 10 | N 1.8 | |
| Ieri h: 18:40 | Molto Nuvoloso | 25 | 23 | 88 | 1000 | 10 | N 1.8 | |
| Ieri h: 18:30 | Molto Nuvoloso | 25 | 24 | 94 | 1000 | 10 | N 1.8 | |
| Ieri h: 18:20 | Molto Nuvoloso | 25 | 24 | 94 | 1000 | 10 | N 1.8 | |
| Ieri h: 18:10 | Molto Nuvoloso | 25 | 23 | 88 | 1000 | 10 | N 0 | |
| Ieri h: 18:00 | Molto Nuvoloso | 25 | 23 | 88 | 1000 | 10 | N 1.8 | |
| Ieri h: 17:50 | Molto Nuvoloso | 25 | 23 | 88 | 1000 | 10 | N 1.8 | |
| Ieri h: 17:40 | Molto Nuvoloso | 25 | 23 | 88 | 1000 | 10 | N 3.7 | |
| Ieri h: 17:30 | Molto Nuvoloso | 25 | 23 | 88 | 1000 | 10 | N 3.7 | |
| Ieri h: 17:20 | Molto Nuvoloso | 25 | 23 | 88 | 1000 | 10 | N 5.5 | |
| Ieri h: 17:10 | Molto Nuvoloso | 26 | 23 | 83 | 1000 | 10 | N 3.7 | |
| Ieri h: 17:00 | Molto Nuvoloso | 26 | 23 | 83 | 1000 | 10 | N 3.7 | |
| Ieri h: 16:50 | Molto Nuvoloso | 26 | 23 | 83 | 999 | 10 | N 1.8 | |
| Ieri h: 16:40 | Coperto | 25 | 23 | 88 | 999 | 10 | N 1.8 | |
| Ieri h: 16:30 | Molto Nuvoloso | 25 | 23 | 88 | 1000 | 10 | N 3.7 | |
| Ieri h: 16:20 | Molto Nuvoloso | 25 | 23 | 88 | 999 | 10 | N 3.7 | |
| Ieri h: 16:10 | Molto Nuvoloso | 25 | 23 | 88 | 1000 | 10 | N 3.7 | |
| Ieri h: 16:00 | Molto Nuvoloso | 25 | 22 | 83 | 999 | 10 | N 3.7 | |
| Ieri h: 15:50 | Molto Nuvoloso | 25 | 23 | 88 | 999 | 10 | N 1.8 | |
| Ieri h: 15:40 | Molto Nuvoloso | 24 | 22 | 88 | 999 | 10 | O 7.4 | |
| Ieri h: 15:30 | Molto Nuvoloso | 24 | 23 | 94 | 999 | 10 | N 3.7 | |
| Ieri h: 15:20 | Molto Nuvoloso | 24 | 22 | 88 | 999 | 10 | N 3.7 | |
| Ieri h: 15:10 | Molto Nuvoloso | 24 | 23 | 94 | 999 | 10 | N 1.8 | |
| Ieri h: 15:00 | Molto Nuvoloso | 23 | 22 | 94 | 999 | 10 | O 7.4 | |
| Ieri h: 14:50 | Coperto | 23 | 23 | 100 | 999 | 10 | N/NE 7.4 | |
| Ieri h: 14:40 | Coperto | 23 | 23 | 100 | 999 | 10 | O 11.1 | |
| Ieri h: 14:30 | Coperto | 24 | 24 | 100 | 999 | 10 | O 9.3 | |
| Ieri h: 14:20 | Coperto | 24 | 24 | 100 | 999 | 10 | O/NO 9.3 | |
| Ieri h: 14:10 | Coperto | 24 | 24 | 100 | 999 | 10 | O 11.1 | |
| Ieri h: 14:00 | Pioggia | 24 | 24 | 100 | 999 | 3 | N 5.5 | |
| Ieri h: 13:50 | Pioggia | 24 | 24 | 100 | 999 | 2 | O/NO 22.2 | |
| Ieri h: 13:40 | Molto Nuvoloso | 25 | 24 | 94 | 999 | 10 | O 11.1 | |
| Ieri h: 13:30 | Molto Nuvoloso | 24 | 24 | 100 | 999 | 10 | N 1.8 | |
| Ieri h: 13:20 | Molto Nuvoloso | 24 | 24 | 100 | 999 | 10 | S/SE 7.4 | |
| Ieri h: 13:10 | Pioggia | 24 | 24 | 100 | 999 | 6 | O/NO 7.4 | |
| Ieri h: 13:00 | Coperto | 24 | 24 | 100 | 999 | 10 | N 1.8 | |
| Ieri h: 12:50 | Molto Nuvoloso | 24 | 24 | 100 | 999 | 10 | N 1.8 | |
| Ieri h: 12:40 | Molto Nuvoloso | 24 | 24 | 100 | 999 | 10 | N 5.5 | |
| Ieri h: 12:30 | Molto Nuvoloso | 24 | 24 | 100 | 999 | 10 | O/NO 7.4 | |
| Ieri h: 12:20 | Coperto | 24 | 24 | 100 | 999 | 10 | N 3.7 | |
| Ieri h: 12:00 | Pioggia | 23 | 23 | 100 | 999 | 1 | N 7.4 | |
| Ieri h: 11:50 | Pioggia | 23 | 23 | 100 | 999 | 1 | N 5.5 | |
| Ieri h: 11:40 | Pioggia | 24 | 24 | 100 | 999 | 2 | N 3.7 | |
| Ieri h: 11:30 | Coperto | 24 | 24 | 100 | 999 | 10 | N 5.5 | |
| Ieri h: 11:20 | Molto Nuvoloso | 24 | 24 | 100 | 999 | 10 | N 3.7 | |
| Ieri h: 11:10 | Molto Nuvoloso | 24 | 24 | 100 | 999 | 10 | N 3.7 | |
| Ieri h: 11:00 | Molto Nuvoloso | 24 | 24 | 100 | 999 | 10 | N 3.7 | |
| Ieri h: 10:50 | Nuvoloso | 24 | 24 | 100 | 1000 | 10 | N 5.5 | |
| Ieri h: 10:40 | Molto Nuvoloso | 24 | 24 | 100 | 1000 | 10 | N 3.7 | |
| Ieri h: 10:30 | Molto Nuvoloso | 24 | 24 | 100 | 1000 | 10 | N 3.7 | |
| Ieri h: 10:20 | Molto Nuvoloso | 24 | 24 | 100 | 1000 | 10 | N 3.7 | |
| Ieri h: 10:10 | Molto Nuvoloso | 24 | 24 | 100 | 1000 | 10 | N 1.8 | |
| Ieri h: 10:00 | Molto Nuvoloso | 23 | 23 | 100 | 1000 | 10 | E/SE 7.4 | |
| Ieri h: 09:50 | Molto Nuvoloso | 23 | 23 | 100 | 1000 | 10 | N 3.7 | |
| Ieri h: 09:40 | Molto Nuvoloso | 23 | 23 | 100 | 1000 | 10 | N 3.7 | |
| Ieri h: 09:30 | Coperto | 23 | 23 | 100 | 999 | 10 | N 5.5 | |
| Ieri h: 09:20 | Coperto | 23 | 23 | 100 | 999 | 10 | N 1.8 | |
| Ieri h: 09:10 | Coperto | 23 | 23 | 100 | 999 | 10 | N 5.5 | |
| Ieri h: 09:00 | Foschia | 23 | 23 | 100 | 999 | 5 | N 3.7 | |
| Ieri h: 08:50 | Coperto | 23 | 23 | 100 | 999 | 10 | N 3.7 | |
| Ieri h: 08:40 | Foschia | 23 | 23 | 100 | 1000 | 9 | N 5.5 | |
| Ieri h: 08:30 | Coperto | 23 | 23 | 100 | 999 | 6 | N 5.5 | |
| Ieri h: 08:20 | Foschia | 23 | 23 | 100 | 1000 | 3 | N 1.8 | |
| Ieri h: 08:10 | Foschia | 23 | 23 | 100 | 1000 | 3 | N 1.8 | |
| Ieri h: 08:00 | Foschia | 23 | 23 | 100 | 999 | 2 | N 5.5 | |
| Ieri h: 07:50 | Foschia | 23 | 23 | 100 | 1000 | 2 | N 1.8 | |
| Ieri h: 07:40 | Foschia | 23 | 23 | 100 | 999 | 2 | N 3.7 | |
| Ieri h: 07:30 | Foschia | 23 | 23 | 100 | 1000 | 3 | N 3.7 | |
| Ieri h: 07:20 | Foschia | 23 | 23 | 100 | 1000 | 2 | N 1.8 | |
| Ieri h: 07:10 | Coperto | 23 | 23 | 100 | 1000 | 6 | N 3.7 | |
| Ieri h: 07:00 | Foschia | 23 | 23 | 100 | 1000 | 5 | N 3.7 | |
| Ieri h: 06:50 | Foschia | 23 | 23 | 100 | 1000 | 3 | N 5.5 | |
| Ieri h: 06:40 | Foschia | 23 | 23 | 100 | 1000 | 2 | N 1.8 | |
| Ieri h: 06:30 | Foschia | 23 | 23 | 100 | 1000 | 3 | N 3.7 | |
| Ieri h: 06:20 | Foschia | 23 | 23 | 100 | 1000 | 4 | N 1.8 | |
| Ieri h: 06:10 | Foschia | 22 | 22 | 100 | 999 | 3 | N 5.5 | |
| Ieri h: 06:00 | Foschia | 22 | 22 | 100 | 1000 | 3 | N 3.7 | |
| Ieri h: 05:50 | Foschia | 23 | 23 | 100 | 1000 | 3 | N 5.5 | |
| Ieri h: 05:40 | Foschia | 22 | 22 | 100 | 1000 | 3 | N 1.8 | |
| Ieri h: 05:30 | Foschia | 22 | 22 | 100 | 1000 | 4 | N 1.8 | |
| Ieri h: 05:20 | Foschia | 23 | 23 | 100 | 1000 | 3 | N 3.7 | |
| Ieri h: 05:10 | Nebbia | 23 | 23 | 100 | 1000 | 0.4 | N 3.7 | |
| Ieri h: 05:00 | Nebbia | 23 | 23 | 100 | 1000 | 0.4 | N 3.7 | |
| Ieri h: 04:50 | Foschia | 23 | 23 | 100 | 1000 | 1 | N 3.7 | |
| Ieri h: 04:40 | Foschia | 23 | 23 | 100 | 1000 | 1 | N 1.8 | |



